User: anonymous   Login
Location: Newark
(25.0000°N, 73.5000°E)
Time: 15:34:44
(UTC+00:00)
Language:

A-11 Canister half - Orbit

View from above orbital plane
View from above orbital plane
View from above satellite
View from above satellite

Ground track
Ground track

The orbit data is extracted from the following two-line orbital elements,

1 00051U 60009C   22272.77622426 -.00000042  00000-0  42275-3 0  9992
2 00051  47.2118 286.2294 0105743 124.3079 236.7771 12.18282298765802
Epoch (UTC): 29 September 2022 18:37:45
Eccentricity: 0.0105743
inclination: 47.2118°
perigee height: 1515 km
apogee height: 1684 km
right ascension of ascending node: 286.2294°
argument of perigee: 124.3079°
revolutions per day: 12.18282298
mean anomaly at epoch: 236.7771°
orbit number at epoch: 76580

The dashed part of the orbit path shows where the satellite is in the earth's shadow,  

DLR